Location: Britannia Beach
(45.3521°N, 62.9901°W)
Time: 10:21:55
(UTC+00:00)

X-37B - Pass Details

Date: 01 August 2021
Orbit: 381 x 393 km, 45.0° (Epoch: 29 August)

Event Time Altitude Azimuth Distance (km) Brightness Sun altitude
Exits shadow 08:08:32 10° 215° (SW) 1,397 2.8 -8.0°
Reaches altitude 10° 08:08:33 10° 215° (SW) 1,391 2.8 -8.0°
Maximum altitude 08:11:17 28° 154° (SSE) 758 2.0 -7.6°
Drops below altitude 10° 08:14:02 10° 93° (E) 1,398 4.3 -7.3°
Sets 08:16:16 0° 81° (E) 2,255 5.8 -6.9°
